Regional Weather Roundup
Issued by NWS

Home | Current Version | Previous Version | Graphics & Text | Print | Product List | Glossary On
Versions: 1 2 3 4 5 6 7 8 9 10 11 12 13 14 15 16 17 18 19 20 21 22 23 24 25 26 27 28 29 30 31 32 33 34 35 36 37 38 39 40 41 42 43 44 45 46 47 48 49 50
000
ASUS43 KLSX 282207
RWRMO

WEATHER SUMMARY FOR MISSOURI
NATIONAL WEATHER SERVICE SPRINGFIELD MO
400 PM CST WED JAN 28 2015

NOTE: "FAIR" INDICATES FEW OR NO CLOUDS BELOW 12,000 FEET WITH NO
       SIGNIFICANT WEATHER AND/OR OBSTRUCTIONS TO VISIBILITY.
       CURRENT SKY AND/OR WEATHER CONDITIONS ARE NOT AVAILABLE FOR
       CHILLICOTHE AND FARMINGTON.

MOZ001>031-035>038-043-044-053-054-282300-
...NORTHERN AND WESTERN MISSOURI...

CITY           SKY/WX    TMP DP  RH WIND       PRES   REMARKS
KANSAS CTY INT PTSUNNY   72  38  29 S21G29    29.67
KANSAS C DTWN  FAIR      74  38  27 S18G24    29.68
LEE`S SUMMIT   FAIR      72  38  29 S15G24    29.71
ST JOSEPH      FAIR      72  38  29 S16       29.66
CHILLICOTHE      N/A     66  41  40 S12G22    29.72
KIRKSVILLE     FAIR      51  40  65 SE15      29.79

$$
MOZ066>068-077>081-088>096-101>105-282300-
...SOUTHWEST MISSOURI...

CITY           SKY/WX    TMP DP  RH WIND       PRES   REMARKS
SPRINGFIELD    FAIR      67  38  34 S16       29.86
JOPLIN         FAIR      74  35  24 SW29G37   29.84

$$
MOZ032>034-039>042-045>050-055>058-069>072-282300-
...CENTRAL MISSOURI...

CITY           SKY/WX    TMP DP  RH WIND       PRES   REMARKS
COLUMBIA       FAIR      60  37  42 S20       29.85
JEFFERSON CITY FAIR      62  34  35 SE12G23   29.87
ROLLA          FAIR      55  34  45 S22       29.91
SEDALIA        FAIR      67  39  35 S17G26    29.81
WHITEMAN AFB   FAIR      66  42  40 S13G23    29.77
WARRENSBURG    FAIR      68  37  32 SE14      29.76
OSAGE BEACH    FAIR      61  34  36 S14G22    29.88

$$
MOZ051-052-059>065-282300-
...EAST CENTRAL MISSOURI...

CITY           SKY/WX    TMP DP  RH WIND       PRES   REMARKS
ST LOUIS INTL  PTSUNNY   50  31  48 SE17      30.00
SPIRIT OF STL  PTSUNNY   53  30  41 SE14G22   29.96
ST CHARLES     FAIR      47  33  58 SE17      29.99

$$
MOZ072>076-082>087-097>100-106>115-282300-
...SOUTH CENTRAL AND SOUTHEAST MISSOURI...

CITY           SKY/WX    TMP DP  RH WIND       PRES   REMARKS
CAPE GIRARDEAU FAIR      47  34  60 S14       30.12
FARMINGTON     FAIR      48  30  49 S17G29    30.07
POPLAR BLUFF   FAIR      50  35  56 S10       30.11
WEST PLAINS    FAIR      53  33  46 SE13      30.01

$$


USA.gov is the U.S. government's official web portal to all federal, state and local government web resources and services.